Time,TemperatureF,DewpointF,PressureIn,WindDirection,WindDirectionDegrees,WindSpeedMPH,WindSpeedGustMPH,Humidity,HourlyPrecipIn,Conditions,Clouds,dailyrainin,SoftwareType,DateUTC
2013-04-18 00:00:00,74.0,73.1,29.84,SE,140,0.0,11.0,97,0.00,,---,0.00,VWS V14.01,2013-04-18 05:00:00,
2013-04-18 00:03:00,74.0,73.1,29.84,South,178,0.0,0.0,97,0.00,,---,0.00,VWS V14.01,2013-04-18 05:03:00,
2013-04-18 00:08:00,73.9,73.0,29.84,SSE,161,0.0,6.0,97,0.00,,---,0.00,VWS V14.01,2013-04-18 05:08:00,
2013-04-18 00:13:00,73.9,73.0,29.84,South,182,0.0,8.0,97,0.00,,---,0.00,VWS V14.01,2013-04-18 05:13:00,
2013-04-18 00:15:00,73.9,73.0,29.84,South,169,0.0,8.0,97,0.00,,---,0.00,VWS V14.01,2013-04-18 05:15:00,
2013-04-18 00:18:00,73.9,73.0,29.84,SE,137,0.0,0.0,97,0.00,,---,0.00,VWS V14.01,2013-04-18 05:18:00,
2013-04-18 00:23:00,73.9,73.0,29.84,SE,142,0.0,3.0,97,0.00,,---,0.00,VWS V14.01,2013-04-18 05:23:00,
2013-04-18 00:28:00,73.9,73.0,29.84,ESE,122,0.0,3.0,97,0.00,,---,0.00,VWS V14.01,2013-04-18 05:28:00,
2013-04-18 00:30:00,73.9,73.0,29.84,SE,130,0.0,7.0,97,0.00,,---,0.00,VWS V14.01,2013-04-18 05:30:00,
2013-04-18 00:33:00,73.9,73.0,29.84,South,186,0.0,0.0,97,0.00,,---,0.00,VWS V14.01,2013-04-18 05:33:00,
2013-04-18 00:38:00,73.7,72.8,29.84,SE,138,7.0,7.0,97,0.00,,---,0.00,VWS V14.01,2013-04-18 05:38:00,
2013-04-18 00:43:00,73.7,72.8,29.84,SE,127,0.0,7.0,97,0.00,,---,0.00,VWS V14.01,2013-04-18 05:43:00,
2013-04-18 00:45:00,73.7,72.8,29.84,SW,229,0.0,7.0,97,0.00,,---,0.00,VWS V14.01,2013-04-18 05:45:00,
2013-04-18 00:48:00,73.7,72.8,29.84,SSE,157,0.0,2.0,97,0.00,,---,0.00,VWS V14.01,2013-04-18 05:48:00,
2013-04-18 00:53:00,73.7,72.8,29.84,South,191,0.0,2.0,97,0.00,,---,0.00,VWS V14.01,2013-04-18 05:53:00,
2013-04-18 00:58:00,73.7,72.8,29.84,South,173,0.0,9.0,97,0.00,,---,0.00,VWS V14.01,2013-04-18 05:58:00,
2013-04-18 01:00:00,73.7,72.8,29.84,South,179,0.0,9.0,97,0.00,,---,0.00,VWS V14.01,2013-04-18 06:00:00,
2013-04-18 01:04:00,73.7,72.8,29.84,South,179,1.0,7.0,97,0.00,,---,0.00,VWS V14.01,2013-04-18 06:04:00,
2013-04-18 01:09:00,73.9,73.0,29.84,South,182,2.0,7.0,97,0.00,,---,0.00,VWS V14.01,2013-04-18 06:09:00,
2013-04-18 01:14:00,73.9,73.0,29.84,SSE,156,0.0,9.0,97,0.00,,---,0.00,VWS V14.01,2013-04-18 06:14:00,
2013-04-18 01:15:00,73.9,73.0,29.84,South,178,0.0,9.0,97,0.00,,---,0.00,VWS V14.01,2013-04-18 06:15:00,
2013-04-18 01:19:00,73.9,73.0,29.84,SSW,212,0.0,0.0,97,0.00,,---,0.00,VWS V14.01,2013-04-18 06:19:00,
2013-04-18 01:24:00,73.9,73.0,29.84,South,182,5.0,13.0,97,0.00,,---,0.00,VWS V14.01,2013-04-18 06:24:00,
2013-04-18 01:29:00,74.0,73.1,29.83,South,180,0.0,13.0,97,0.00,,---,0.00,VWS V14.01,2013-04-18 06:29:00,
2013-04-18 01:30:00,74.0,73.1,29.83,SSE,159,0.0,13.0,97,0.00,,---,0.00,VWS V14.01,2013-04-18 06:30:00,
2013-04-18 01:34:00,74.0,73.1,29.83,South,183,0.0,0.0,97,0.00,,---,0.00,VWS V14.01,2013-04-18 06:34:00,
2013-04-18 01:39:00,74.0,73.1,29.83,SSE,168,0.0,2.0,97,0.00,,---,0.00,VWS V14.01,2013-04-18 06:39:00,
2013-04-18 01:44:00,74.0,73.1,29.82,South,180,0.0,2.0,97,0.00,,---,0.00,VWS V14.01,2013-04-18 06:44:00,
2013-04-18 01:45:00,74.0,73.1,29.82,South,183,0.0,2.0,97,0.00,,---,0.00,VWS V14.01,2013-04-18 06:45:00,
2013-04-18 01:49:00,74.0,73.1,29.82,South,173,0.0,6.0,97,0.00,,---,0.00,VWS V14.01,2013-04-18 06:49:00,
2013-04-18 01:54:00,74.2,73.3,29.82,East,101,4.0,6.0,97,0.00,,---,0.00,VWS V14.01,2013-04-18 06:54:00,
2013-04-18 01:59:00,74.2,73.3,29.82,SSE,161,0.0,7.0,97,0.00,,---,0.00,VWS V14.01,2013-04-18 06:59:00,
2013-04-18 02:00:00,74.2,73.3,29.82,SSE,161,0.0,7.0,97,0.00,,---,0.00,VWS V14.01,2013-04-18 07:00:00,
2013-04-18 02:04:00,74.2,73.3,29.82,SSW,213,0.0,0.0,97,0.00,,---,0.00,VWS V14.01,2013-04-18 07:04:00,
2013-04-18 02:09:00,74.2,73.3,29.82,SSE,168,0.0,0.0,97,0.00,,---,0.00,VWS V14.01,2013-04-18 07:09:00,
2013-04-18 02:14:00,74.2,73.3,29.81,South,180,0.0,3.0,97,0.00,,---,0.00,VWS V14.01,2013-04-18 07:14:00,
2013-04-18 02:15:00,74.2,73.3,29.81,South,182,5.0,5.0,97,0.00,,---,0.00,VWS V14.01,2013-04-18 07:15:00,
2013-04-18 02:20:00,74.0,73.1,29.81,SSE,163,0.0,7.0,97,0.00,,---,0.00,VWS V14.01,2013-04-18 07:20:00,
2013-04-18 02:25:00,74.2,73.3,29.81,SSW,193,3.0,10.0,97,0.00,,---,0.00,VWS V14.01,2013-04-18 07:25:00,
2013-04-18 02:30:00,74.2,73.3,29.81,SSE,153,6.0,10.0,97,0.00,,---,0.00,VWS V14.01,2013-04-18 07:30:00,
2013-04-18 02:35:00,74.4,73.5,29.81,SSE,162,0.0,7.0,97,0.00,,---,0.00,VWS V14.01,2013-04-18 07:35:00,
2013-04-18 02:40:00,74.4,73.5,29.81,SSW,196,1.0,7.0,97,0.00,,---,0.00,VWS V14.01,2013-04-18 07:40:00,
2013-04-18 02:45:00,74.4,73.5,29.80,SSW,204,0.0,0.0,97,0.00,,---,0.00,VWS V14.01,2013-04-18 07:45:00,
2013-04-18 02:50:00,74.2,73.3,29.80,South,182,0.0,4.0,97,0.00,,---,0.00,VWS V14.01,2013-04-18 07:50:00,
2013-04-18 02:55:00,74.2,73.3,29.80,SE,140,3.0,10.0,97,0.00,,---,0.00,VWS V14.01,2013-04-18 07:55:00,
2013-04-18 03:00:00,74.2,73.3,29.79,SSW,201,0.0,0.0,97,0.00,,---,0.00,VWS V14.01,2013-04-18 08:00:00,
2013-04-18 03:05:00,74.2,73.3,29.79,SE,146,0.0,0.0,97,0.00,,---,0.00,VWS V14.01,2013-04-18 08:05:00,
2013-04-18 03:10:00,74.0,73.1,29.79,South,169,0.0,5.0,97,0.00,,---,0.00,VWS V14.01,2013-04-18 08:10:00,
2013-04-18 03:15:00,74.0,73.1,29.79,South,181,0.0,0.0,97,0.00,,---,0.00,VWS V14.01,2013-04-18 08:15:00,
2013-04-18 03:20:00,74.0,73.1,29.79,SE,126,0.0,5.0,97,0.00,,---,0.00,VWS V14.01,2013-04-18 08:20:00,
2013-04-18 03:26:00,74.0,73.1,29.79,SSE,162,0.0,7.0,97,0.00,,---,0.00,VWS V14.01,2013-04-18 08:26:00,
2013-04-18 03:30:00,74.0,73.1,29.80,South,174,0.0,7.0,97,0.00,,---,0.00,VWS V14.01,2013-04-18 08:30:00,
2013-04-18 03:31:00,74.0,73.1,29.80,SSW,206,0.0,0.0,97,0.00,,---,0.00,VWS V14.01,2013-04-18 08:31:00,
2013-04-18 03:36:00,74.0,73.1,29.80,South,173,0.0,4.0,97,0.00,,---,0.00,VWS V14.01,2013-04-18 08:36:00,
2013-04-18 03:41:00,74.0,73.1,29.80,SSW,194,0.0,6.0,97,0.00,,---,0.00,VWS V14.01,2013-04-18 08:41:00,
2013-04-18 03:45:00,74.0,73.1,29.80,SSW,198,0.0,6.0,97,0.00,,---,0.00,VWS V14.01,2013-04-18 08:45:00,
2013-04-18 03:46:00,73.9,73.0,29.80,South,183,0.0,6.0,97,0.00,,---,0.00,VWS V14.01,2013-04-18 08:46:00,
2013-04-18 03:51:00,73.9,73.0,29.80,SSW,196,0.0,6.0,97,0.00,,---,0.00,VWS V14.01,2013-04-18 08:51:00,
2013-04-18 03:56:00,73.7,72.8,29.80,South,180,0.0,6.0,97,0.00,,---,0.00,VWS V14.01,2013-04-18 08:56:00,
2013-04-18 04:00:00,73.7,72.8,29.79,SSE,166,0.0,6.0,97,0.00,,---,0.00,VWS V14.01,2013-04-18 09:00:00,
2013-04-18 04:01:00,73.7,72.8,29.79,South,175,0.0,3.0,97,0.00,,---,0.00,VWS V14.01,2013-04-18 09:01:00,
2013-04-18 04:06:00,73.7,72.8,29.79,SSW,201,0.0,7.0,97,0.00,,---,0.00,VWS V14.01,2013-04-18 09:06:00,
2013-04-18 04:11:00,73.7,72.8,29.79,South,182,3.0,10.0,97,0.00,,---,0.00,VWS V14.01,2013-04-18 09:11:00,
2013-04-18 04:15:00,73.7,72.8,29.79,South,188,0.0,10.0,97,0.00,,---,0.00,VWS V14.01,2013-04-18 09:15:00,
2013-04-18 04:16:00,73.7,72.8,29.79,SSE,158,0.0,0.0,97,0.00,,---,0.00,VWS V14.01,2013-04-18 09:16:00,
2013-04-18 04:21:00,73.7,72.8,29.79,SSE,159,0.0,7.0,97,0.00,,---,0.00,VWS V14.01,2013-04-18 09:21:00,
2013-04-18 04:26:00,73.7,72.8,29.79,South,188,0.0,12.0,97,0.00,,---,0.00,VWS V14.01,2013-04-18 09:26:00,
2013-04-18 04:30:00,73.7,72.8,29.78,South,172,0.0,12.0,97,0.00,,---,0.00,VWS V14.01,2013-04-18 09:30:00,
2013-04-18 04:31:00,73.7,72.8,29.78,South,191,0.0,10.0,97,0.00,,---,0.00,VWS V14.01,2013-04-18 09:31:00,
2013-04-18 04:37:00,73.9,73.0,29.78,SE,144,0.0,10.0,97,0.00,,---,0.00,VWS V14.01,2013-04-18 09:37:00,
2013-04-18 04:42:00,73.9,73.0,29.78,SSE,162,0.0,10.0,97,0.00,,---,0.00,VWS V14.01,2013-04-18 09:42:00,
2013-04-18 04:45:00,73.9,73.0,29.78,SSE,167,0.0,10.0,97,0.00,,---,0.00,VWS V14.01,2013-04-18 09:45:00,
2013-04-18 04:47:00,73.9,73.0,29.78,South,182,0.0,0.0,97,0.00,,---,0.00,VWS V14.01,2013-04-18 09:47:00,
2013-04-18 04:52:00,73.9,73.0,29.78,SSE,151,0.0,7.0,97,0.00,,---,0.00,VWS V14.01,2013-04-18 09:52:00,
2013-04-18 04:57:00,73.7,72.8,29.78,South,180,0.0,7.0,97,0.00,,---,0.00,VWS V14.01,2013-04-18 09:57:00,
2013-04-18 05:00:00,73.7,72.8,29.77,SSE,153,0.0,7.0,97,0.00,,---,0.00,VWS V14.01,2013-04-18 10:00:00,
2013-04-18 05:02:00,73.7,72.8,29.77,South,187,0.0,2.0,97,0.00,,---,0.00,VWS V14.01,2013-04-18 10:02:00,
2013-04-18 05:07:00,73.5,72.6,29.77,SSE,153,0.0,2.0,97,0.00,,---,0.00,VWS V14.01,2013-04-18 10:07:00,
2013-04-18 05:12:00,73.5,72.6,29.77,SW,214,0.0,2.0,97,0.00,,---,0.00,VWS V14.01,2013-04-18 10:12:00,
2013-04-18 05:15:00,73.5,72.6,29.76,SSW,200,0.0,2.0,97,0.00,,---,0.00,VWS V14.01,2013-04-18 10:15:00,
2013-04-18 05:17:00,73.5,72.6,29.76,SSE,168,0.0,7.0,97,0.00,,---,0.00,VWS V14.01,2013-04-18 10:17:00,
2013-04-18 05:22:00,73.3,72.4,29.76,SSW,210,4.0,7.0,97,0.00,,---,0.00,VWS V14.01,2013-04-18 10:22:00,
2013-04-18 05:27:00,73.3,72.4,29.76,South,173,3.0,7.0,97,0.00,,---,0.00,VWS V14.01,2013-04-18 10:27:00,
2013-04-18 05:30:00,73.3,72.4,29.76,South,176,0.0,7.0,97,0.00,,---,0.00,VWS V14.01,2013-04-18 10:30:00,
2013-04-18 05:32:00,73.3,72.4,29.76,SSE,156,0.0,6.0,97,0.00,,---,0.00,VWS V14.01,2013-04-18 10:32:00,
2013-04-18 05:37:00,73.2,72.3,29.76,SSE,156,0.0,6.0,97,0.00,,---,0.00,VWS V14.01,2013-04-18 10:37:00,
2013-04-18 05:42:00,73.2,72.3,29.76,SE,126,0.0,6.0,97,0.00,,---,0.00,VWS V14.01,2013-04-18 10:42:00,
2013-04-18 05:45:00,73.2,72.3,29.76,SE,128,0.0,6.0,97,0.00,,---,0.00,VWS V14.01,2013-04-18 10:45:00,
2013-04-18 05:47:00,73.2,72.3,29.76,South,188,0.0,6.0,97,0.00,,---,0.00,VWS V14.01,2013-04-18 10:47:00,
2013-04-18 05:53:00,73.0,72.1,29.76,SE,142,0.0,7.0,97,0.00,,---,0.00,VWS V14.01,2013-04-18 10:53:00,
2013-04-18 05:58:00,73.0,72.1,29.76,SE,143,0.0,7.0,97,0.00,,---,0.00,VWS V14.01,2013-04-18 10:58:00,
2013-04-18 06:00:00,73.0,72.1,29.76,South,174,0.0,7.0,97,0.00,,---,0.00,VWS V14.01,2013-04-18 11:00:00,
2013-04-18 06:03:00,73.0,72.1,29.76,South,190,0.0,4.0,97,0.00,,---,0.00,VWS V14.01,2013-04-18 11:03:00,
2013-04-18 06:08:00,73.0,72.1,29.76,SSE,158,0.0,4.0,97,0.00,,---,0.00,VWS V14.01,2013-04-18 11:08:00,
2013-04-18 06:13:00,73.0,72.1,29.76,SSE,150,0.0,6.0,97,0.00,,---,0.00,VWS V14.01,2013-04-18 11:13:00,
2013-04-18 06:15:00,73.0,72.1,29.75,SSE,166,0.0,8.0,97,0.00,,---,0.00,VWS V14.01,2013-04-18 11:15:00,
2013-04-18 06:18:00,73.0,72.1,29.75,SSW,194,0.0,2.0,97,0.00,,---,0.00,VWS V14.01,2013-04-18 11:18:00,
2013-04-18 06:23:00,72.8,71.9,29.75,South,185,0.0,2.0,97,0.00,,---,0.00,VWS V14.01,2013-04-18 11:23:00,
2013-04-18 06:28:00,72.8,71.9,29.75,SSW,210,0.0,4.0,97,0.00,,---,0.00,VWS V14.01,2013-04-18 11:28:00,
2013-04-18 06:30:00,72.8,71.9,29.76,SSW,204,0.0,4.0,97,0.00,,---,0.00,VWS V14.01,2013-04-18 11:30:00,
2013-04-18 06:33:00,72.7,71.8,29.76,South,184,0.0,0.0,97,0.00,,---,0.00,VWS V14.01,2013-04-18 11:33:00,
2013-04-18 06:38:00,72.5,71.6,29.76,SSW,196,0.0,5.0,97,0.00,,---,0.00,VWS V14.01,2013-04-18 11:38:00,
2013-04-18 06:43:00,72.5,71.6,29.76,SSE,163,0.0,5.0,97,0.00,,---,0.00,VWS V14.01,2013-04-18 11:43:00,
2013-04-18 06:45:00,72.5,71.6,29.76,East,89,0.0,5.0,97,0.00,,---,0.00,VWS V14.01,2013-04-18 11:45:00,
2013-04-18 06:48:00,72.5,71.6,29.76,SW,221,0.0,2.0,97,0.00,,---,0.00,VWS V14.01,2013-04-18 11:48:00,
2013-04-18 06:53:00,72.5,71.6,29.76,South,177,0.0,2.0,97,0.00,,---,0.00,VWS V14.01,2013-04-18 11:53:00,
2013-04-18 06:58:00,72.5,71.6,29.76,SSW,204,0.0,2.0,97,0.00,,---,0.00,VWS V14.01,2013-04-18 11:58:00,
2013-04-18 07:00:00,72.5,71.6,29.76,SSW,205,0.0,3.0,97,0.00,,---,0.00,VWS V14.01,2013-04-18 12:00:00,
2013-04-18 07:03:00,72.5,71.6,29.76,ESE,118,0.0,3.0,97,0.00,,---,0.00,VWS V14.01,2013-04-18 12:03:00,
2013-04-18 07:08:00,72.5,71.6,29.76,ESE,117,0.0,4.0,97,0.00,,---,0.00,VWS V14.01,2013-04-18 12:08:00,
2013-04-18 07:13:00,72.7,71.8,29.76,West,265,0.0,5.0,97,0.00,,---,0.00,VWS V14.01,2013-04-18 12:13:00,
2013-04-18 07:15:00,72.7,71.8,29.77,South,177,0.0,10.0,97,0.00,,---,0.00,VWS V14.01,2013-04-18 12:15:00,
2013-04-18 07:19:00,72.7,71.8,29.77,SSE,150,0.0,1.0,97,0.00,,---,0.00,VWS V14.01,2013-04-18 12:19:00,
2013-04-18 07:24:00,72.8,71.9,29.77,ESE,119,0.0,1.0,97,0.00,,---,0.00,VWS V14.01,2013-04-18 12:24:00,
2013-04-18 07:29:00,72.8,71.9,29.77,South,191,4.0,5.0,97,0.00,,---,0.00,VWS V14.01,2013-04-18 12:29:00,
2013-04-18 07:30:00,72.8,71.9,29.77,South,173,0.0,5.0,97,0.00,,---,0.00,VWS V14.01,2013-04-18 12:30:00,
2013-04-18 07:34:00,73.0,72.1,29.77,South,182,0.0,0.0,97,0.00,,---,0.00,VWS V14.01,2013-04-18 12:34:00,
2013-04-18 07:39:00,73.0,72.1,29.77,South,180,0.0,0.0,97,0.00,,---,0.00,VWS V14.01,2013-04-18 12:39:00,
2013-04-18 07:44:00,73.2,72.3,29.77,SSE,167,0.0,7.0,97,0.00,,---,0.00,VWS V14.01,2013-04-18 12:44:00,
2013-04-18 07:45:00,73.2,72.3,29.77,South,178,0.0,7.0,97,0.00,,---,0.00,VWS V14.01,2013-04-18 12:45:00,
2013-04-18 07:49:00,73.2,72.3,29.77,SE,130,0.0,5.0,97,0.00,,---,0.00,VWS V14.01,2013-04-18 12:49:00,
2013-04-18 07:54:00,73.3,72.4,29.77,SSE,165,0.0,9.0,97,0.00,,---,0.00,VWS V14.01,2013-04-18 12:54:00,
2013-04-18 07:59:00,73.3,72.4,29.78,South,173,0.0,12.0,97,0.00,,---,0.00,VWS V14.01,2013-04-18 12:59:00,
2013-04-18 08:00:00,73.3,72.4,29.78,South,173,0.0,12.0,97,0.00,,---,0.00,VWS V14.01,2013-04-18 13:00:00,
2013-04-18 08:04:00,73.3,72.4,29.78,South,171,0.0,5.0,97,0.00,,---,0.00,VWS V14.01,2013-04-18 13:04:00,
2013-04-18 08:09:00,73.3,72.4,29.78,South,180,0.0,5.0,97,0.00,,---,0.00,VWS V14.01,2013-04-18 13:09:00,
2013-04-18 08:14:00,73.5,72.6,29.78,SSE,160,0.0,5.0,97,0.00,,---,0.00,VWS V14.01,2013-04-18 13:14:00,
2013-04-18 08:15:00,73.5,72.6,29.78,SSE,160,0.0,5.0,97,0.00,,---,0.00,VWS V14.01,2013-04-18 13:15:00,
2013-04-18 08:19:00,73.7,72.8,29.78,SW,215,0.0,2.0,97,0.00,,---,0.00,VWS V14.01,2013-04-18 13:19:00,
2013-04-18 08:24:00,74.0,73.1,29.78,SSE,159,0.0,9.0,97,0.00,,---,0.00,VWS V14.01,2013-04-18 13:24:00,
2013-04-18 08:29:00,74.2,73.3,29.78,South,175,0.0,9.0,97,0.00,,---,0.00,VWS V14.01,2013-04-18 13:29:00,
2013-04-18 08:30:00,74.4,73.5,29.78,South,175,0.0,9.0,97,0.00,,---,0.00,VWS V14.01,2013-04-18 13:30:00,
2013-04-18 08:34:00,74.4,73.5,29.78,SSE,150,0.0,7.0,97,0.00,,---,0.00,VWS V14.01,2013-04-18 13:34:00,
2013-04-18 08:39:00,74.2,73.3,29.78,SSE,150,0.0,7.0,97,0.00,,---,0.00,VWS V14.01,2013-04-18 13:39:00,
2013-04-18 08:44:00,74.4,73.5,29.78,SE,144,0.0,9.0,97,0.00,,---,0.00,VWS V14.01,2013-04-18 13:44:00,
2013-04-18 08:45:00,74.4,73.5,29.78,South,188,3.0,9.0,97,0.00,,---,0.00,VWS V14.01,2013-04-18 13:45:00,
2013-04-18 08:49:00,74.6,73.7,29.78,South,173,0.0,7.0,97,0.00,,---,0.00,VWS V14.01,2013-04-18 13:49:00,
2013-04-18 08:54:00,74.7,73.8,29.78,South,181,0.0,9.0,97,0.00,,---,0.00,VWS V14.01,2013-04-18 13:54:00,
2013-04-18 09:00:00,74.9,74.0,29.78,South,182,0.0,9.0,97,0.00,,---,0.00,VWS V14.01,2013-04-18 14:00:00,
2013-04-18 09:05:00,75.1,74.2,29.78,South,175,0.0,11.0,97,0.00,,---,0.00,VWS V14.01,2013-04-18 14:05:00,
2013-04-18 09:10:00,75.3,74.4,29.78,SW,225,0.0,11.0,97,0.00,,---,0.00,VWS V14.01,2013-04-18 14:10:00,
2013-04-18 09:15:00,75.4,74.5,29.78,South,191,0.0,11.0,97,0.00,,---,0.00,VWS V14.01,2013-04-18 14:15:00,
2013-04-18 09:20:00,75.6,74.7,29.78,SSE,167,0.0,13.0,97,0.00,,---,0.00,VWS V14.01,2013-04-18 14:20:00,
2013-04-18 09:25:00,75.8,74.9,29.78,SE,125,0.0,13.0,97,0.00,,---,0.00,VWS V14.01,2013-04-18 14:25:00,
2013-04-18 09:30:00,76.0,75.1,29.78,South,173,0.0,0.0,97,0.00,,---,0.00,VWS V14.01,2013-04-18 14:30:00,
2013-04-18 09:35:00,76.1,75.2,29.78,South,187,0.0,10.0,97,0.00,,---,0.00,VWS V14.01,2013-04-18 14:35:00,
2013-04-18 09:40:00,76.1,75.2,29.78,South,188,5.0,10.0,97,0.00,,---,0.00,VWS V14.01,2013-04-18 14:40:00,
2013-04-18 09:45:00,76.3,75.4,29.79,SSE,167,0.0,0.0,97,0.00,,---,0.00,VWS V14.01,2013-04-18 14:45:00,
2013-04-18 09:50:00,76.1,75.2,29.79,South,186,0.0,11.0,97,0.00,,---,0.00,VWS V14.01,2013-04-18 14:50:00,
2013-04-18 09:55:00,76.1,75.2,29.79,South,183,0.0,11.0,97,0.00,,---,0.00,VWS V14.01,2013-04-18 14:55:00,
2013-04-18 10:00:00,76.3,75.4,29.78,South,188,0.0,0.0,97,0.00,,---,0.00,VWS V14.01,2013-04-18 15:00:00,
2013-04-18 10:05:00,76.5,75.6,29.78,South,182,0.0,8.0,97,0.00,,---,0.00,VWS V14.01,2013-04-18 15:05:00,
2013-04-18 10:11:00,76.8,75.9,29.78,SSW,194,0.0,8.0,97,0.00,,---,0.00,VWS V14.01,2013-04-18 15:11:00,
2013-04-18 10:15:00,77.2,76.3,29.78,SSW,197,0.0,10.0,97,0.00,,---,0.00,VWS V14.01,2013-04-18 15:15:00,
2013-04-18 10:16:00,77.4,76.5,29.78,SSW,192,0.0,0.0,97,0.00,,---,0.00,VWS V14.01,2013-04-18 15:16:00,
2013-04-18 10:21:00,77.6,76.7,29.78,South,176,4.0,5.0,97,0.00,,---,0.00,VWS V14.01,2013-04-18 15:21:00,
2013-04-18 10:26:00,77.2,76.3,29.78,SSW,194,0.0,10.0,97,0.00,,---,0.00,VWS V14.01,2013-04-18 15:26:00,
2013-04-18 10:30:00,77.2,76.3,29.78,SSW,207,0.0,12.0,97,0.00,,---,0.00,VWS V14.01,2013-04-18 15:30:00,
2013-04-18 10:31:00,77.2,76.3,29.78,SSW,194,0.0,5.0,97,0.00,,---,0.00,VWS V14.01,2013-04-18 15:31:00,
2013-04-18 10:36:00,77.2,76.3,29.78,South,183,9.0,9.0,97,0.00,,---,0.00,VWS V14.01,2013-04-18 15:36:00,
2013-04-18 10:41:00,77.4,76.5,29.78,SSW,196,7.0,11.0,97,0.00,,---,0.00,VWS V14.01,2013-04-18 15:41:00,
2013-04-18 10:45:00,77.9,77.0,29.79,South,188,5.0,12.0,97,0.00,,---,0.00,VWS V14.01,2013-04-18 15:45:00,
2013-04-18 10:46:00,78.1,77.2,29.79,South,173,6.0,6.0,97,0.00,,---,0.00,VWS V14.01,2013-04-18 15:46:00,
2013-04-18 10:51:00,78.1,77.2,29.79,SSW,197,0.0,9.0,97,0.00,,---,0.00,VWS V14.01,2013-04-18 15:51:00,
2013-04-18 10:56:00,78.1,77.2,29.79,South,176,0.0,12.0,97,0.00,,---,0.00,VWS V14.01,2013-04-18 15:56:00,
2013-04-18 11:00:00,78.1,77.2,29.79,SE,124,2.0,13.0,97,0.00,,---,0.00,VWS V14.01,2013-04-18 16:00:00,
2013-04-18 11:01:00,78.1,77.2,29.79,ESE,119,6.0,10.0,97,0.00,,---,0.00,VWS V14.01,2013-04-18 16:01:00,
2013-04-18 11:06:00,78.3,77.4,29.79,South,186,3.0,16.0,97,0.00,,---,0.00,VWS V14.01,2013-04-18 16:06:00,
2013-04-18 11:12:00,78.3,77.4,29.79,SSW,196,4.0,16.0,97,0.00,,---,0.00,VWS V14.01,2013-04-18 16:12:00,
2013-04-18 11:15:00,78.6,77.7,29.78,South,175,0.0,16.0,97,0.00,,---,0.00,VWS V14.01,2013-04-18 16:15:00,
2013-04-18 11:17:00,78.8,77.9,29.78,South,184,10.0,11.0,97,0.00,,---,0.00,VWS V14.01,2013-04-18 16:17:00,
2013-04-18 11:22:00,79.0,78.1,29.78,SSW,199,4.0,19.0,97,0.00,,---,0.00,VWS V14.01,2013-04-18 16:22:00,
2013-04-18 11:27:00,79.0,78.1,29.78,SSW,207,0.0,19.0,97,0.00,,---,0.00,VWS V14.01,2013-04-18 16:27:00,
2013-04-18 11:30:00,79.2,78.3,29.78,SSE,155,6.0,19.0,97,0.00,,---,0.00,VWS V14.01,2013-04-18 16:30:00,
2013-04-18 11:32:00,79.2,78.3,29.78,SW,215,0.0,6.0,97,0.00,,---,0.00,VWS V14.01,2013-04-18 16:32:00,
2013-04-18 11:37:00,79.6,78.7,29.78,South,170,5.0,12.0,97,0.00,,---,0.00,VWS V14.01,2013-04-18 16:37:00,
2013-04-18 11:42:00,79.9,79.0,29.78,South,183,2.0,19.0,97,0.00,,---,0.00,VWS V14.01,2013-04-18 16:42:00,
2013-04-18 11:45:00,79.9,79.0,29.77,SW,223,5.0,19.0,97,0.00,,---,0.00,VWS V14.01,2013-04-18 16:45:00,
2013-04-18 11:47:00,79.9,79.0,29.77,South,186,0.0,10.0,97,0.00,,---,0.00,VWS V14.01,2013-04-18 16:47:00,
2013-04-18 11:52:00,79.8,78.9,29.77,South,189,0.0,11.0,97,0.00,,---,0.00,VWS V14.01,2013-04-18 16:52:00,
2013-04-18 11:57:00,80.5,79.6,29.77,SW,215,6.0,11.0,97,0.00,,---,0.00,VWS V14.01,2013-04-18 16:57:00,
2013-04-18 12:00:00,80.5,79.6,29.76,SSW,209,13.0,13.0,97,0.00,,---,0.00,VWS V14.01,2013-04-18 17:00:00,
2013-04-18 12:02:00,80.5,79.6,29.76,South,189,7.0,14.0,97,0.00,,---,0.00,VWS V14.01,2013-04-18 17:02:00,
2013-04-18 12:07:00,80.3,79.4,29.76,South,187,0.0,16.0,97,0.00,,---,0.00,VWS V14.01,2013-04-18 17:07:00,
2013-04-18 12:12:00,80.1,79.2,29.76,South,187,0.0,16.0,97,0.00,,---,0.00,VWS V14.01,2013-04-18 17:12:00,
2013-04-18 12:15:00,80.5,79.6,29.76,South,184,2.0,16.0,97,0.00,,---,0.00,VWS V14.01,2013-04-18 17:15:00,
2013-04-18 12:17:00,80.7,79.8,29.76,SSE,167,0.0,13.0,97,0.00,,---,0.00,VWS V14.01,2013-04-18 17:17:00,
2013-04-18 12:23:00,81.2,80.3,29.76,SSW,192,3.0,14.0,97,0.00,,---,0.00,VWS V14.01,2013-04-18 17:23:00,
2013-04-18 12:28:00,81.8,80.9,29.76,SW,216,4.0,20.0,97,0.00,,---,0.00,VWS V14.01,2013-04-18 17:28:00,
2013-04-18 12:30:00,81.8,80.9,29.75,SSW,200,4.0,20.0,97,0.00,,---,0.00,VWS V14.01,2013-04-18 17:30:00,
2013-04-18 12:33:00,82.2,81.3,29.75,South,170,10.0,14.0,97,0.00,,---,0.00,VWS V14.01,2013-04-18 17:33:00,
2013-04-18 12:38:00,82.2,81.3,29.75,South,178,0.0,14.0,97,0.00,,---,0.00,VWS V14.01,2013-04-18 17:38:00,
2013-04-18 12:43:00,82.0,81.1,29.75,SSW,197,2.0,15.0,97,0.00,,---,0.00,VWS V14.01,2013-04-18 17:43:00,
2013-04-18 12:45:00,82.0,81.1,29.75,North,360,5.0,15.0,97,0.00,,---,0.00,VWS V14.01,2013-04-18 17:45:00,
2013-04-18 12:48:00,82.0,81.1,29.75,South,171,6.0,21.0,97,0.00,,---,0.00,VWS V14.01,2013-04-18 17:48:00,
2013-04-18 12:53:00,82.0,81.1,29.75,South,174,10.0,21.0,97,0.00,,---,0.00,VWS V14.01,2013-04-18 17:53:00,
2013-04-18 12:58:00,82.8,81.9,29.75,SSW,202,0.0,21.0,97,0.00,,---,0.00,VWS V14.01,2013-04-18 17:58:00,
2013-04-18 13:00:00,83.2,82.3,29.74,SW,216,2.0,21.0,97,0.00,,---,0.00,VWS V14.01,2013-04-18 18:00:00,
2013-04-18 13:03:00,83.4,82.5,29.74,South,182,6.0,17.0,97,0.00,,---,0.00,VWS V14.01,2013-04-18 18:03:00,
2013-04-18 13:08:00,82.8,81.9,29.74,SSW,198,13.0,20.0,97,0.00,,---,0.00,VWS V14.01,2013-04-18 18:08:00,
2013-04-18 13:13:00,82.6,81.7,29.74,South,169,0.0,20.0,97,0.00,,---,0.00,VWS V14.01,2013-04-18 18:13:00,
2013-04-18 13:15:00,82.6,81.7,29.73,SSW,210,0.0,20.0,97,0.00,,---,0.00,VWS V14.01,2013-04-18 18:15:00,
2013-04-18 13:18:00,82.8,81.9,29.73,South,182,0.0,16.0,97,0.00,,---,0.00,VWS V14.01,2013-04-18 18:18:00,
2013-04-18 13:23:00,82.4,81.5,29.73,SSW,194,6.0,16.0,97,0.00,,---,0.00,VWS V14.01,2013-04-18 18:23:00,
2013-04-18 13:28:00,83.0,82.1,29.73,SSW,213,15.0,16.0,97,0.00,,---,0.00,VWS V14.01,2013-04-18 18:28:00,
2013-04-18 13:30:00,83.0,82.1,29.73,SSW,213,11.0,16.0,97,0.00,,---,0.00,VWS V14.01,2013-04-18 18:30:00,
2013-04-18 13:34:00,82.8,81.9,29.73,SE,140,1.0,12.0,97,0.00,,---,0.00,VWS V14.01,2013-04-18 18:34:00,
2013-04-18 13:39:00,82.4,81.5,29.73,South,169,0.0,14.0,97,0.00,,---,0.00,VWS V14.01,2013-04-18 18:39:00,
2013-04-18 13:44:00,82.0,81.1,29.73,SSE,163,5.0,17.0,97,0.00,,---,0.00,VWS V14.01,2013-04-18 18:44:00,
2013-04-18 13:45:00,82.0,81.1,29.73,South,174,9.0,17.0,97,0.00,,---,0.00,VWS V14.01,2013-04-18 18:45:00,
2013-04-18 13:49:00,82.6,81.7,29.73,SW,221,11.0,18.0,97,0.00,,---,0.00,VWS V14.01,2013-04-18 18:49:00,
2013-04-18 13:54:00,82.2,81.3,29.73,South,172,1.0,18.0,97,0.00,,---,0.00,VWS V14.01,2013-04-18 18:54:00,
2013-04-18 13:59:00,82.4,81.5,29.73,SSW,200,14.0,18.0,97,0.00,,---,0.00,VWS V14.01,2013-04-18 18:59:00,
2013-04-18 14:00:00,82.6,81.7,29.73,South,182,1.0,18.0,97,0.00,,---,0.00,VWS V14.01,2013-04-18 19:00:00,
2013-04-18 14:04:00,83.0,82.1,29.73,South,174,4.0,13.0,97,0.00,,---,0.00,VWS V14.01,2013-04-18 19:04:00,
2013-04-18 14:09:00,83.6,82.7,29.73,SSW,198,1.0,16.0,97,0.00,,---,0.00,VWS V14.01,2013-04-18 19:09:00,
2013-04-18 14:14:00,84.1,83.2,29.73,SSE,167,0.0,22.0,97,0.00,,---,0.00,VWS V14.01,2013-04-18 19:14:00,
2013-04-18 14:15:00,84.1,83.2,29.73,SSW,200,11.0,22.0,97,0.00,,---,0.00,VWS V14.01,2013-04-18 19:15:00,
2013-04-18 14:19:00,83.6,82.7,29.73,SSW,200,2.0,21.0,97,0.00,,---,0.00,VWS V14.01,2013-04-18 19:19:00,
2013-04-18 14:24:00,83.4,82.5,29.73,SW,214,14.0,21.0,97,0.00,,---,0.00,VWS V14.01,2013-04-18 19:24:00,
2013-04-18 14:29:00,83.2,82.3,29.73,SSW,203,7.0,21.0,97,0.00,,---,0.00,VWS V14.01,2013-04-18 19:29:00,
2013-04-18 14:30:00,83.2,82.3,29.73,SSW,200,0.0,21.0,97,0.00,,---,0.00,VWS V14.01,2013-04-18 19:30:00,
2013-04-18 14:34:00,83.2,82.3,29.73,SSE,160,1.0,14.0,97,0.00,,---,0.00,VWS V14.01,2013-04-18 19:34:00,
2013-04-18 14:39:00,83.2,82.3,29.73,SSW,206,6.0,18.0,97,0.00,,---,0.00,VWS V14.01,2013-04-18 19:39:00,
2013-04-18 14:44:00,83.0,82.1,29.73,SSW,198,9.0,27.0,97,0.00,,---,0.00,VWS V14.01,2013-04-18 19:44:00,
2013-04-18 14:45:00,82.8,81.9,29.73,SSW,205,14.0,27.0,97,0.00,,---,0.00,VWS V14.01,2013-04-18 19:45:00,
2013-04-18 14:49:00,82.4,81.5,29.73,SSW,210,18.0,26.0,97,0.00,,---,0.00,VWS V14.01,2013-04-18 19:49:00,
2013-04-18 14:54:00,82.2,81.3,29.73,SSW,194,12.0,26.0,97,0.00,,---,0.00,VWS V14.01,2013-04-18 19:54:00,
2013-04-18 14:59:00,82.0,81.1,29.72,SSW,203,9.0,26.0,97,0.00,,---,0.00,VWS V14.01,2013-04-18 19:59:00,
2013-04-18 15:00:00,82.0,81.1,29.72,SW,215,6.0,26.0,97,0.00,,---,0.00,VWS V14.01,2013-04-18 20:00:00,
2013-04-18 15:04:00,82.0,81.1,29.72,SSW,207,9.0,15.0,97,0.00,,---,0.00,VWS V14.01,2013-04-18 20:04:00,
2013-04-18 15:10:00,81.8,80.9,29.72,South,180,12.0,19.0,97,0.00,,---,0.00,VWS V14.01,2013-04-18 20:10:00,
2013-04-18 15:15:00,81.8,80.9,29.72,SW,218,13.0,19.0,97,0.00,,---,0.00,VWS V14.01,2013-04-18 20:15:00,
2013-04-18 15:20:00,81.8,80.9,29.72,SSW,193,12.0,18.0,97,0.00,,---,0.00,VWS V14.01,2013-04-18 20:20:00,
2013-04-18 15:25:00,82.2,81.3,29.72,SSW,206,4.0,18.0,97,0.00,,---,0.00,VWS V14.01,2013-04-18 20:25:00,
2013-04-18 15:30:00,82.2,81.3,29.71,SSW,209,13.0,14.0,97,0.00,,---,0.00,VWS V14.01,2013-04-18 20:30:00,
2013-04-18 15:35:00,81.8,80.9,29.71,SSE,153,5.0,16.0,97,0.00,,---,0.00,VWS V14.01,2013-04-18 20:35:00,
2013-04-18 15:40:00,81.6,80.7,29.71,SSW,200,4.0,18.0,97,0.00,,---,0.00,VWS V14.01,2013-04-18 20:40:00,
2013-04-18 15:45:00,81.4,80.5,29.71,SE,140,6.0,10.0,97,0.00,,---,0.00,VWS V14.01,2013-04-18 20:45:00,
2013-04-18 15:50:00,81.2,80.3,29.71,SSW,192,0.0,16.0,97,0.00,,---,0.00,VWS V14.01,2013-04-18 20:50:00,
2013-04-18 15:56:00,81.1,80.2,29.71,South,187,13.0,22.0,97,0.00,,---,0.00,VWS V14.01,2013-04-18 20:56:00,
2013-04-18 16:00:00,80.9,80.0,29.71,South,189,6.0,22.0,97,0.00,,---,0.00,VWS V14.01,2013-04-18 21:00:00,
2013-04-18 16:01:00,80.9,80.0,29.71,SW,219,10.0,10.0,97,0.00,,---,0.00,VWS V14.01,2013-04-18 21:01:00,
2013-04-18 16:06:00,81.1,80.2,29.71,WSW,258,14.0,16.0,97,0.00,,---,0.00,VWS V14.01,2013-04-18 21:06:00,
2013-04-18 16:11:00,81.1,80.2,29.71,SSW,206,9.0,18.0,97,0.00,,---,0.00,VWS V14.01,2013-04-18 21:11:00,
2013-04-18 16:15:00,81.2,80.3,29.70,SSW,209,3.0,18.0,97,0.00,,---,0.00,VWS V14.01,2013-04-18 21:15:00,
2013-04-18 16:16:00,81.2,80.3,29.70,South,175,0.0,13.0,97,0.00,,---,0.00,VWS V14.01,2013-04-18 21:16:00,
2013-04-18 16:21:00,81.2,80.3,29.70,SSW,203,0.0,13.0,97,0.00,,---,0.00,VWS V14.01,2013-04-18 21:21:00,
2013-04-18 16:26:00,81.2,80.3,29.70,SW,215,7.0,19.0,97,0.00,,---,0.00,VWS V14.01,2013-04-18 21:26:00,
2013-04-18 16:30:00,81.2,80.3,29.70,SSW,203,11.0,20.0,97,0.00,,---,0.00,VWS V14.01,2013-04-18 21:30:00,
2013-04-18 16:31:00,81.1,80.2,29.70,SSW,194,7.0,16.0,97,0.00,,---,0.00,VWS V14.01,2013-04-18 21:31:00,
2013-04-18 16:36:00,80.9,80.0,29.70,South,184,0.0,16.0,97,0.00,,---,0.00,VWS V14.01,2013-04-18 21:36:00,
2013-04-18 16:41:00,81.2,80.3,29.70,SSW,192,5.0,16.0,97,0.00,,---,0.00,VWS V14.01,2013-04-18 21:41:00,
2013-04-18 16:45:00,81.2,80.3,29.69,SSW,193,6.0,16.0,97,0.00,,---,0.00,VWS V14.01,2013-04-18 21:45:00,
2013-04-18 16:46:00,81.2,80.3,29.69,SSW,198,6.0,12.0,97,0.00,,---,0.00,VWS V14.01,2013-04-18 21:46:00,
2013-04-18 16:52:00,81.1,80.2,29.69,SSW,194,0.0,12.0,97,0.00,,---,0.00,VWS V14.01,2013-04-18 21:52:00,
2013-04-18 16:57:00,80.9,80.0,29.69,SSW,211,9.0,16.0,97,0.00,,---,0.00,VWS V14.01,2013-04-18 21:57:00,
2013-04-18 17:00:00,80.9,80.0,29.69,SSW,209,14.0,17.0,97,0.00,,---,0.00,VWS V14.01,2013-04-18 22:00:00,
2013-04-18 17:02:00,80.9,80.0,29.69,SSW,198,7.0,16.0,97,0.00,,---,0.00,VWS V14.01,2013-04-18 22:02:00,
2013-04-18 17:07:00,80.7,79.8,29.69,South,185,4.0,16.0,97,0.00,,---,0.00,VWS V14.01,2013-04-18 22:07:00,
2013-04-18 17:12:00,80.7,79.8,29.69,SW,218,2.0,16.0,97,0.00,,---,0.00,VWS V14.01,2013-04-18 22:12:00,
2013-04-18 17:15:00,80.5,79.6,29.69,SSW,202,15.0,16.0,97,0.00,,---,0.00,VWS V14.01,2013-04-18 22:15:00,
2013-04-18 17:17:00,80.5,79.6,29.69,SSW,200,1.0,15.0,97,0.00,,---,0.00,VWS V14.01,2013-04-18 22:17:00,
2013-04-18 17:22:00,80.3,79.4,29.69,SSW,196,11.0,19.0,97,0.00,,---,0.00,VWS V14.01,2013-04-18 22:22:00,
2013-04-18 17:27:00,80.3,79.4,29.69,WSW,239,6.0,19.0,97,0.00,,---,0.00,VWS V14.01,2013-04-18 22:27:00,
2013-04-18 17:30:00,80.3,79.4,29.69,South,189,2.0,19.0,97,0.00,,---,0.00,VWS V14.01,2013-04-18 22:30:00,
2013-04-18 17:32:00,80.1,79.2,29.69,SSW,205,11.0,18.0,97,0.00,,---,0.00,VWS V14.01,2013-04-18 22:32:00,
2013-04-18 17:38:00,79.9,79.0,29.69,SSW,205,0.0,18.0,97,0.00,,---,0.00,VWS V14.01,2013-04-18 22:38:00,
2013-04-18 17:43:00,79.9,79.0,29.69,SSE,159,11.0,18.0,97,0.00,,---,0.00,VWS V14.01,2013-04-18 22:43:00,
2013-04-18 17:45:00,79.9,79.0,29.68,SSW,213,9.0,18.0,97,0.00,,---,0.00,VWS V14.01,2013-04-18 22:45:00,
2013-04-18 17:48:00,79.9,79.0,29.68,SSW,194,9.0,21.0,97,0.00,,---,0.00,VWS V14.01,2013-04-18 22:48:00,
2013-04-18 17:53:00,79.9,79.0,29.68,SSW,205,0.0,21.0,97,0.00,,---,0.00,VWS V14.01,2013-04-18 22:53:00,
2013-04-18 17:58:00,79.8,78.9,29.68,SSW,198,0.0,21.0,97,0.00,,---,0.00,VWS V14.01,2013-04-18 22:58:00,
2013-04-18 18:00:00,79.8,78.9,29.68,SW,220,11.0,21.0,97,0.00,,---,0.00,VWS V14.01,2013-04-18 23:00:00,
2013-04-18 18:03:00,79.8,78.9,29.68,SW,216,11.0,14.0,97,0.00,,---,0.00,VWS V14.01,2013-04-18 23:03:00,
2013-04-18 18:08:00,79.8,78.9,29.68,SSW,195,6.0,18.0,97,0.00,,---,0.00,VWS V14.01,2013-04-18 23:08:00,
2013-04-18 18:13:00,79.8,78.9,29.68,SW,221,6.0,18.0,97,0.00,,---,0.00,VWS V14.01,2013-04-18 23:13:00,
2013-04-18 18:15:00,79.8,78.9,29.68,SW,215,7.0,18.0,97,0.00,,---,0.00,VWS V14.01,2013-04-18 23:15:00,
2013-04-18 18:19:00,79.6,78.7,29.68,SSW,198,11.0,15.0,97,0.00,,---,0.00,VWS V14.01,2013-04-18 23:19:00,
2013-04-18 18:24:00,79.6,78.7,29.68,SSW,203,14.0,21.0,97,0.00,,---,0.00,VWS V14.01,2013-04-18 23:24:00,
2013-04-18 18:29:00,79.6,78.7,29.68,SSW,211,11.0,25.0,97,0.00,,---,0.00,VWS V14.01,2013-04-18 23:29:00,
2013-04-18 18:30:00,79.6,78.7,29.68,South,179,10.0,25.0,97,0.00,,---,0.00,VWS V14.01,2013-04-18 23:30:00,
2013-04-18 18:34:00,79.4,78.5,29.68,SSW,207,12.0,19.0,97,0.00,,---,0.00,VWS V14.01,2013-04-18 23:34:00,
2013-04-18 18:39:00,79.2,78.3,29.68,SSW,207,6.0,19.0,97,0.00,,---,0.00,VWS V14.01,2013-04-18 23:39:00,
2013-04-18 18:44:00,79.2,78.3,29.69,South,186,7.0,19.0,97,0.00,,---,0.00,VWS V14.01,2013-04-18 23:44:00,
2013-04-18 18:45:00,79.2,78.3,29.69,SSW,198,7.0,19.0,97,0.00,,---,0.00,VWS V14.01,2013-04-18 23:45:00,
2013-04-18 18:49:00,79.2,78.3,29.69,SSW,211,5.0,15.0,97,0.00,,---,0.00,VWS V14.01,2013-04-18 23:49:00,
2013-04-18 18:54:00,79.0,78.1,29.69,SE,144,9.0,26.0,97,0.00,,---,0.00,VWS V14.01,2013-04-18 23:54:00,
2013-04-18 18:59:00,79.0,78.1,29.69,South,190,10.0,26.0,97,0.00,,---,0.00,VWS V14.01,2013-04-18 23:59:00,
2013-04-18 19:00:00,79.0,78.1,29.69,South,180,7.0,26.0,97,0.00,,---,0.00,VWS V14.01,2013-04-19 00:00:00,
2013-04-18 19:05:00,79.0,78.1,29.69,SSW,202,9.0,21.0,97,0.00,,---,0.00,VWS V14.01,2013-04-19 00:05:00,
2013-04-18 19:10:00,78.8,77.9,29.69,SW,229,5.0,21.0,97,0.00,,---,0.00,VWS V14.01,2013-04-19 00:10:00,
2013-04-18 19:15:00,78.8,77.9,29.70,SSW,209,0.0,21.0,97,0.00,,---,0.00,VWS V14.01,2013-04-19 00:15:00,
2013-04-18 19:20:00,78.6,77.7,29.70,SSW,192,0.0,14.0,97,0.00,,---,0.00,VWS V14.01,2013-04-19 00:20:00,
2013-04-18 19:25:00,78.6,77.7,29.70,SW,214,9.0,20.0,97,0.00,,---,0.00,VWS V14.01,2013-04-19 00:25:00,
2013-04-18 19:30:00,78.6,77.7,29.70,SSW,213,7.0,9.0,97,0.00,,---,0.00,VWS V14.01,2013-04-19 00:30:00,
2013-04-18 19:35:00,78.5,77.6,29.70,SW,215,7.0,17.0,97,0.00,,---,0.00,VWS V14.01,2013-04-19 00:35:00,
2013-04-18 19:40:00,78.5,77.6,29.70,South,190,1.0,19.0,97,0.00,,---,0.00,VWS V14.01,2013-04-19 00:40:00,
2013-04-18 19:45:00,78.3,77.4,29.71,SSW,213,0.0,10.0,97,0.00,,---,0.00,VWS V14.01,2013-04-19 00:45:00,
2013-04-18 19:50:00,78.3,77.4,29.71,SSW,204,5.0,15.0,97,0.00,,---,0.00,VWS V14.01,2013-04-19 00:50:00,
2013-04-18 19:55:00,78.1,77.2,29.71,South,182,1.0,15.0,97,0.00,,---,0.00,VWS V14.01,2013-04-19 00:55:00,
2013-04-18 20:00:00,78.1,77.2,29.71,SSW,213,0.0,15.0,97,0.00,,---,0.00,VWS V14.01,2013-04-19 01:00:00,
2013-04-18 20:01:00,77.9,77.0,29.71,SSW,202,11.0,11.0,97,0.00,,---,0.00,VWS V14.01,2013-04-19 01:01:00,
2013-04-18 20:06:00,77.4,76.5,29.71,SSW,201,4.0,13.0,97,0.00,,---,0.00,VWS V14.01,2013-04-19 01:06:00,
2013-04-18 20:11:00,77.2,76.3,29.71,SSW,192,8.0,14.0,97,0.00,,---,0.00,VWS V14.01,2013-04-19 01:11:00,
2013-04-18 20:15:00,77.0,76.1,29.71,SSW,206,12.0,16.0,97,0.00,,---,0.00,VWS V14.01,2013-04-19 01:15:00,
2013-04-18 20:16:00,77.0,76.1,29.71,SSW,211,6.0,13.0,97,0.00,,---,0.00,VWS V14.01,2013-04-19 01:16:00,
2013-04-18 20:21:00,77.2,76.3,29.71,SW,215,0.0,13.0,97,0.00,,---,0.00,VWS V14.01,2013-04-19 01:21:00,
2013-04-18 20:26:00,77.2,76.3,29.71,South,184,4.0,17.0,97,0.00,,---,0.00,VWS V14.01,2013-04-19 01:26:00,
2013-04-18 20:30:00,77.4,76.5,29.71,South,184,0.0,17.0,97,0.00,,---,0.00,VWS V14.01,2013-04-19 01:30:00,
2013-04-18 20:31:00,77.4,76.5,29.71,SSW,206,3.0,3.0,97,0.00,,---,0.00,VWS V14.01,2013-04-19 01:31:00,
2013-04-18 20:36:00,77.4,76.5,29.71,SSW,213,1.0,22.0,97,0.00,,---,0.00,VWS V14.01,2013-04-19 01:36:00,
2013-04-18 20:41:00,77.4,76.5,29.71,SSW,195,1.0,22.0,97,0.00,,---,0.00,VWS V14.01,2013-04-19 01:41:00,
2013-04-18 20:45:00,77.2,76.3,29.72,South,186,0.0,22.0,97,0.00,,---,0.00,VWS V14.01,2013-04-19 01:45:00,
2013-04-18 20:46:00,77.2,76.3,29.72,SSW,205,4.0,7.0,97,0.00,,---,0.00,VWS V14.01,2013-04-19 01:46:00,
2013-04-18 20:51:00,77.2,76.3,29.72,SSW,206,6.0,10.0,97,0.00,,---,0.00,VWS V14.01,2013-04-19 01:51:00,
2013-04-18 20:56:00,77.2,76.3,29.72,South,178,9.0,18.0,97,0.00,,---,0.00,VWS V14.01,2013-04-19 01:56:00,
2013-04-18 21:00:00,77.2,76.3,29.72,SE,133,2.0,18.0,97,0.00,,---,0.00,VWS V14.01,2013-04-19 02:00:00,
2013-04-18 21:01:00,77.2,76.3,29.72,SSW,205,0.0,11.0,97,0.00,,---,0.00,VWS V14.01,2013-04-19 02:01:00,
2013-04-18 21:07:00,77.0,76.1,29.72,SSW,203,2.0,12.0,97,0.00,,---,0.00,VWS V14.01,2013-04-19 02:07:00,
2013-04-18 21:12:00,77.0,76.1,29.72,South,188,0.0,16.0,97,0.00,,---,0.00,VWS V14.01,2013-04-19 02:12:00,
2013-04-18 21:15:00,77.0,76.1,29.73,SSW,196,11.0,16.0,97,0.00,,---,0.00,VWS V14.01,2013-04-19 02:15:00,
2013-04-18 21:17:00,77.0,76.1,29.73,SSW,213,8.0,11.0,97,0.00,,---,0.00,VWS V14.01,2013-04-19 02:17:00,
2013-04-18 21:22:00,77.0,76.1,29.73,South,188,4.0,14.0,97,0.00,,---,0.00,VWS V14.01,2013-04-19 02:22:00,
2013-04-18 21:27:00,76.7,75.8,29.73,SSW,205,5.0,14.0,97,0.02,,---,0.02,VWS V14.01,2013-04-19 02:27:00,
2013-04-18 21:30:00,76.3,75.4,29.73,South,175,0.0,14.0,97,0.02,,---,0.02,VWS V14.01,2013-04-19 02:30:00,
2013-04-18 21:32:00,76.1,75.2,29.73,South,191,0.0,4.0,97,0.02,,---,0.02,VWS V14.01,2013-04-19 02:32:00,
2013-04-18 21:37:00,75.8,74.9,29.73,SSW,205,0.0,4.0,97,0.02,,---,0.02,VWS V14.01,2013-04-19 02:37:00,
2013-04-18 21:42:00,74.9,74.0,29.73,WNW,290,2.0,18.0,97,0.02,,---,0.02,VWS V14.01,2013-04-19 02:42:00,
2013-04-18 21:45:00,71.8,70.9,29.76,NW,321,10.0,18.0,97,0.02,,---,0.02,VWS V14.01,2013-04-19 02:45:00,
2013-04-18 21:47:00,68.6,67.7,29.76,NW,316,12.0,15.0,97,0.03,,---,0.03,VWS V14.01,2013-04-19 02:47:00,
2013-04-18 21:52:00,64.8,63.9,29.76,NNW,334,6.0,15.0,97,0.07,,---,0.07,VWS V14.01,2013-04-19 02:52:00,
2013-04-18 21:58:00,62.9,62.0,29.76,North,360,6.0,15.0,97,0.08,,---,0.08,VWS V14.01,2013-04-19 02:58:00,
2013-04-18 22:00:00,62.4,61.5,29.78,NNW,334,6.0,15.0,97,0.08,,---,0.08,VWS V14.01,2013-04-19 03:00:00,
2013-04-18 22:03:00,61.8,60.9,29.78,NNW,333,7.0,10.0,97,0.08,,---,0.08,VWS V14.01,2013-04-19 03:03:00,
2013-04-18 22:08:00,60.9,60.0,29.78,NW,315,3.0,13.0,97,0.08,,---,0.08,VWS V14.01,2013-04-19 03:08:00,
2013-04-18 22:13:00,60.2,59.3,29.78,NNW,333,9.0,19.0,97,0.09,,---,0.09,VWS V14.01,2013-04-19 03:13:00,
2013-04-18 22:15:00,60.1,59.2,29.80,NNE,28,1.0,19.0,97,0.09,,---,0.09,VWS V14.01,2013-04-19 03:15:00,
2013-04-18 22:18:00,59.8,59.0,29.80,NNW,342,3.0,17.0,97,0.09,,---,0.09,VWS V14.01,2013-04-19 03:18:00,
2013-04-18 22:23:00,59.5,58.7,29.80,NNW,340,7.0,17.0,97,0.10,,---,0.10,VWS V14.01,2013-04-19 03:23:00,
2013-04-18 22:28:00,58.9,58.0,29.80,NNE,13,7.0,17.0,97,0.11,,---,0.11,VWS V14.01,2013-04-19 03:28:00,
2013-04-18 22:30:00,58.7,57.8,29.81,NNW,330,7.0,17.0,97,0.11,,---,0.11,VWS V14.01,2013-04-19 03:30:00,
2013-04-18 22:33:00,58.6,57.8,29.81,NW,323,6.0,11.0,97,0.09,,---,0.11,VWS V14.01,2013-04-19 03:33:00,
2013-04-18 22:38:00,58.4,57.6,29.81,NW,319,3.0,13.0,97,0.09,,---,0.11,VWS V14.01,2013-04-19 03:38:00,
2013-04-18 22:43:00,58.3,57.5,29.81,North,5,5.0,13.0,97,0.09,,---,0.11,VWS V14.01,2013-04-19 03:43:00,
2013-04-18 22:45:00,58.3,57.5,29.81,North,5,7.0,13.0,97,0.09,,---,0.11,VWS V14.01,2013-04-19 03:45:00,
2013-04-18 22:48:00,58.1,57.3,29.81,NNW,346,4.0,19.0,97,0.10,,---,0.12,VWS V14.01,2013-04-19 03:48:00,
2013-04-18 22:53:00,58.0,57.2,29.81,North,9,4.0,19.0,97,0.10,,---,0.12,VWS V14.01,2013-04-19 03:53:00,
2013-04-18 22:59:00,57.8,57.0,29.81,NNW,335,4.0,19.0,97,0.11,,---,0.13,VWS V14.01,2013-04-19 03:59:00,
2013-04-18 23:00:00,57.8,57.0,29.82,NNE,15,3.0,19.0,97,0.11,,---,0.13,VWS V14.01,2013-04-19 04:00:00,
2013-04-18 23:01:00,57.6,56.8,29.82,North,355,4.0,5.0,97,0.05,,---,0.13,VWS V14.01,2013-04-19 04:01:00,
2013-04-18 23:02:00,57.6,56.8,29.82,NE,38,4.0,8.0,97,0.05,,---,0.13,VWS V14.01,2013-04-19 04:02:00,
2013-04-18 23:07:00,57.5,56.7,29.82,North,355,7.0,13.0,97,0.05,,---,0.13,VWS V14.01,2013-04-19 04:07:00,
2013-04-18 23:12:00,57.3,56.5,29.82,North,360,2.0,13.0,97,0.05,,---,0.13,VWS V14.01,2013-04-19 04:12:00,
2013-04-18 23:15:00,57.3,56.5,29.83,NNW,339,3.0,13.0,97,0.06,,---,0.14,VWS V14.01,2013-04-19 04:15:00,
2013-04-18 23:18:00,57.2,56.4,29.83,NNW,336,2.0,10.0,97,0.05,,---,0.14,VWS V14.01,2013-04-19 04:18:00,
2013-04-18 23:23:00,57.2,56.4,29.83,NNW,331,0.0,10.0,97,0.05,,---,0.14,VWS V14.01,2013-04-19 04:23:00,
2013-04-18 23:28:00,56.9,56.1,29.83,North,355,4.0,10.0,97,0.05,,---,0.14,VWS V14.01,2013-04-19 04:28:00,
2013-04-18 23:30:00,56.9,56.1,29.84,NNW,329,4.0,10.0,97,0.05,,---,0.14,VWS V14.01,2013-04-19 04:30:00,
2013-04-18 23:33:00,56.7,55.9,29.84,ENE,63,6.0,12.0,97,0.03,,---,0.14,VWS V14.01,2013-04-19 04:33:00,
2013-04-18 23:38:00,56.6,55.8,29.84,NW,319,7.0,13.0,97,0.03,,---,0.14,VWS V14.01,2013-04-19 04:38:00,
2013-04-18 23:43:00,56.3,55.5,29.84,North,355,0.0,13.0,97,0.04,,---,0.15,VWS V14.01,2013-04-19 04:43:00,
2013-04-18 23:45:00,56.3,55.5,29.83,North,351,5.0,13.0,97,0.04,,---,0.15,VWS V14.01,2013-04-19 04:45:00,
2013-04-18 23:48:00,56.3,55.5,29.83,North,350,2.0,12.0,97,0.05,,---,0.16,VWS V14.01,2013-04-19 04:48:00,
2013-04-18 23:53:00,56.3,55.5,29.83,North,349,1.0,12.0,97,0.05,,---,0.16,VWS V14.01,2013-04-19 04:53:00,
2013-04-18 23:58:00,56.3,55.5,29.83,NNW,338,0.0,12.0,97,0.05,,---,0.16,VWS V14.01,2013-04-19 04:58:00,